| time (UTC) | temp F | wind direction | speed MPH | gust MPH | rain 1hr in | rain 24hr in | rain mn in | humidity % | barometer mb |
| 20260507092139 | 48 | 70 | 0.0 | 0.0 | 0.00 | 0.06 | 0.06 | 99 | 978.0 |
| 20260507091635 | 48 | 70 | 0.0 | 0.0 | 0.00 | 0.06 | 0.06 | 99 | 978.0 |
| 20260507091131 | 48 | 70 | 0.0 | 0.0 | 0.00 | 0.06 | 0.06 | 99 | 978.1 |
| 20260507090627 | 48 | 70 | 0.0 | 0.0 | 0.00 | 0.06 | 0.06 | 99 | 978.1 |
| 20260507090125 | 48 | 70 | 0.0 | 0.0 | 0.00 | 0.06 | 0.06 | 99 | 977.9 |
| 20260507085622 | 48 | 70 | 0.0 | 0.0 | 0.00 | 0.06 | 0.06 | 99 | 978.2 |
| 20260507085118 | 48 | 70 | 0.0 | 0.0 | 0.00 | 0.06 | 0.06 | 99 | 978.1 |
| 20260507084615 | 48 | 70 | 0.0 | 0.0 | 0.00 | 0.06 | 0.06 | 99 | 978.2 |
| 20260507084112 | 48 | 70 | 0.0 | 1.0 | 0.00 | 0.06 | 0.06 | 99 | 978.2 |
| 20260507083609 | 48 | 70 | 0.0 | 0.0 | 0.00 | 0.06 | 0.06 | 99 | 978.3 |
| 20260507083106 | 48 | 70 | 0.0 | 0.0 | 0.00 | 0.06 | 0.06 | 99 | 978.3 |
| 20260507082601 | 48 | 70 | 0.0 | 0.0 | 0.00 | 0.06 | 0.06 | 99 | 978.4 |
| 20260507082058 | 48 | 70 | 0.0 | 0.0 | 0.00 | 0.06 | 0.06 | 99 | 978.1 |
| 20260507081554 | 48 | 70 | 0.0 | 0.0 | 0.00 | 0.06 | 0.06 | 99 | 978.3 |
| 20260507081051 | 48 | 70 | 0.0 | 0.0 | 0.00 | 0.06 | 0.06 | 99 | 978.0 |
| 20260507080547 | 48 | 70 | 0.0 | 0.0 | 0.00 | 0.06 | 0.06 | 99 | 978.3 |
| 20260507080044 | 48 | 70 | 0.0 | 0.0 | 0.00 | 0.06 | 0.06 | 99 | 978.2 |
| 20260507075539 | 48 | 70 | 0.0 | 0.0 | 0.00 | 0.06 | 0.06 | 99 | 978.2 |
| 20260507075036 | 48 | 70 | 0.0 | 0.0 | 0.00 | 0.06 | 0.06 | 99 | 978.2 |
| 20260507074532 | 48 | 70 | 0.0 | 0.0 | 0.00 | 0.06 | 0.06 | 99 | 978.0 |
| 20260507074031 | 48 | 70 | 0.0 | 0.0 | 0.00 | 0.06 | 0.06 | 99 | 978.0 |
| 20260507073527 | 48 | 70 | 1.0 | 1.0 | 0.00 | 0.06 | 0.06 | 99 | 978.0 |
| 20260507073023 | 48 | 70 | 0.0 | 1.0 | 0.00 | 0.06 | 0.06 | 99 | 978.0 |
| 20260507072521 | 49 | 70 | 0.0 | 1.0 | 0.00 | 0.06 | 0.06 | 99 | 978.1 |
| 20260507072018 | 49 | 70 | 0.0 | 0.0 | 0.00 | 0.06 | 0.06 | 98 | 978.2 |
| 20260507071515 | 49 | 70 | 0.0 | 0.0 | 0.00 | 0.06 | 0.06 | 97 | 978.0 |
| 20260507071012 | 49 | 70 | 0.0 | 0.0 | 0.05 | 0.06 | 0.06 | 97 | 978.0 |
| 20260507070509 | 49 | 70 | 0.0 | 1.0 | 0.05 | 0.06 | 0.06 | 96 | 978.0 |
| 20260507070010 | 49 | 337 | 0.0 | 1.0 | 0.00 | 0.05 | 0.05 | 97 | 978.2 |
| 20260507065502 | 49 | 337 | 0.0 | 1.0 | 0.00 | 0.05 | 0.05 | 98 | 978.1 |
| 20260507064959 | 49 | 337 | 0.0 | 0.0 | 0.00 | 0.05 | 0.05 | 98 | 978.1 |
| 20260507064458 | 49 | 337 | 0.0 | 0.0 | 0.00 | 0.05 | 0.05 | 99 | 978.1 |
| 20260507063955 | 49 | 337 | 0.0 | 2.0 | 0.00 | 0.05 | 0.05 | 99 | 978.4 |
| 20260507063452 | 49 | 337 | 3.0 | 3.0 | 0.00 | 0.05 | 0.05 | 99 | 978.2 |
| 20260507062949 | 49 | 227 | 0.0 | 0.0 | 0.00 | 0.05 | 0.05 | 99 | 978.3 |
| 20260507062446 | 49 | 227 | 0.0 | 0.0 | 0.00 | 0.05 | 0.05 | 99 | 977.9 |
| 20260507061943 | 49 | 227 | 0.0 | 0.0 | 0.00 | 0.05 | 0.05 | 99 | 978.2 |
| 20260507061442 | 49 | 227 | 0.0 | 0.0 | 0.00 | 0.05 | 0.05 | 99 | 978.1 |
| 20260507060940 | 50 | 227 | 0.0 | 0.0 | 0.07 | 0.05 | 0.05 | 99 | 978.0 |
| 20260507060436 | 50 | 227 | 0.0 | 0.0 | 0.00 | 0.04 | 0.04 | 99 | 978.1 |
| 20260507055933 | 50 | 227 | 0.0 | 0.0 | 0.00 | 0.04 | 0.04 | 99 | 978.4 |
| 20260507055428 | 50 | 227 | 0.0 | 0.0 | 0.00 | 0.04 | 0.04 | 99 | 978.3 |
| 20260507054925 | 49 | 227 | 1.0 | 3.0 | 0.00 | 0.04 | 0.04 | 99 | 978.4 |
| 20260507054421 | 50 | 82 | 1.0 | 2.0 | 0.07 | 0.04 | 0.04 | 99 | 978.5 |
| 20260507053919 | 50 | 82 | 0.0 | 0.0 | 0.07 | 0.04 | 0.04 | 99 | 978.3 |
| 20260507053416 | 50 | 82 | 0.0 | 0.0 | 0.00 | 0.03 | 0.03 | 99 | 978.5 |
| 20260507052915 | 50 | 82 | 0.0 | 0.0 | 0.05 | 0.03 | 0.03 | 99 | 978.6 |
| 20260507052412 | 50 | 82 | 0.0 | 0.0 | 0.05 | 0.03 | 0.03 | 99 | 978.5 |
| 20260507051903 | 50 | 82 | 0.0 | 0.0 | 0.00 | 0.02 | 0.02 | 99 | 978.5 |
| 20260507051401 | 50 | 82 | 1.0 | 1.0 | 0.00 | 0.02 | 0.02 | 99 | 978.5 |
| 20260507050857 | 50 | 82 | 0.0 | 0.0 | 0.00 | 0.02 | 0.02 | 98 | 978.6 |
| 20260507050353 | 50 | 82 | 1.0 | 1.0 | 0.00 | 0.02 | 0.02 | 98 | 978.4 |
| 20260507045851 | 50 | 82 | 0.0 | 1.0 | 0.00 | 0.02 | 0.02 | 98 | 978.4 |
| 20260507045347 | 50 | 82 | 0.0 | 1.0 | 0.07 | 0.02 | 0.02 | 98 | 978.6 |
| 20260507044844 | 50 | 344 | 0.0 | 1.0 | 0.00 | 0.01 | 0.01 | 98 | 978.5 |
| 20260507044340 | 50 | 344 | 1.0 | 1.0 | 0.00 | 0.01 | 0.01 | 98 | 978.6 |
| 20260507043837 | 50 | 344 | 1.0 | 2.0 | 0.00 | 0.01 | 0.01 | 97 | 978.5 |
| 20260507043333 | 50 | 343 | 0.0 | 2.0 | 0.00 | 0.01 | 0.01 | 98 | 978.6 |
| 20260507042830 | 51 | 287 | 1.0 | 4.0 | 0.05 | 0.01 | 0.01 | 98 | 978.3 |
| 20260507042325 | 51 | 30 | 0.0 | 0.0 | 0.05 | 0.01 | 0.01 | 99 | 978.5 |
| 20260507041823 | 51 | 30 | 0.0 | 0.0 | 0.00 | 0.00 | 0.00 | 99 | 978.6 |
| 20260507041319 | 51 | 30 | 0.0 | 1.0 | 0.00 | 0.00 | 0.00 | 99 | 978.3 |
| 20260507040816 | 51 | 30 | 0.0 | 0.0 | 0.00 | 0.00 | 0.00 | 99 | 978.0 |
| 20260507040312 | 51 | 30 | 0.0 | 0.0 | 0.00 | 0.00 | 0.00 | 99 | 977.9 |
| 20260507035808 | 51 | 30 | 0.0 | 1.0 | 0.00 | 0.63 | 0.63 | 99 | 978.0 |
| 20260507035306 | 51 | 30 | 0.0 | 1.0 | 0.07 | 0.63 | 0.63 | 99 | 978.1 |
| 20260507034802 | 52 | 63 | 1.0 | 2.0 | 0.07 | 0.63 | 0.63 | 99 | 978.1 |
| 20260507034258 | 52 | 63 | 0.0 | 0.0 | 0.00 | 0.62 | 0.62 | 99 | 978.2 |
| 20260507033757 | 52 | 63 | 0.0 | 0.0 | 0.00 | 0.62 | 0.62 | 99 | 978.2 |
| 20260507033254 | 52 | 63 | 0.0 | 0.0 | 0.00 | 0.62 | 0.62 | 99 | 978.2 |
| 20260507032751 | 52 | 63 | 0.0 | 0.0 | 0.00 | 0.62 | 0.62 | 99 | 978.1 |
| 20260507032247 | 52 | 63 | 0.0 | 0.0 | 0.00 | 0.62 | 0.62 | 99 | 978.4 |
| 20260507031743 | 52 | 63 | 0.0 | 1.0 | 0.00 | 0.62 | 0.62 | 99 | 978.0 |
| 20260507031240 | 52 | 63 | 0.0 | 0.0 | 0.00 | 0.62 | 0.62 | 99 | 978.2 |
| 20260507030737 | 52 | 63 | 1.0 | 2.0 | 0.00 | 0.62 | 0.62 | 98 | 978.0 |
| 20260507030234 | 52 | 67 | 0.0 | 0.0 | 0.00 | 0.62 | 0.62 | 98 | 977.5 |
| 20260507025732 | 53 | 67 | 1.0 | 1.0 | 0.00 | 0.62 | 0.62 | 98 | 978.2 |
| 20260507025228 | 52 | 67 | 1.0 | 3.0 | 0.00 | 0.62 | 0.62 | 98 | 979.0 |
| 20260507024727 | 53 | 276 | 0.0 | 0.0 | 0.00 | 0.62 | 0.62 | 99 | 978.8 |
| 20260507024224 | 53 | 276 | 1.0 | 3.0 | 0.00 | 0.62 | 0.62 | 99 | 978.7 |
| 20260507023719 | 53 | 242 | 2.0 | 2.0 | 0.00 | 0.62 | 0.62 | 99 | 978.0 |
| 20260507023216 | 53 | 174 | 0.0 | 1.0 | 0.00 | 0.62 | 0.62 | 99 | 977.9 |
| 20260507022714 | 53 | 171 | 3.0 | 3.0 | 0.00 | 0.62 | 0.62 | 98 | 978.3 |
| 20260507022209 | 53 | 215 | 1.0 | 2.0 | 0.00 | 0.62 | 0.62 | 98 | 978.1 |
| 20260507021706 | 53 | 292 | 0.0 | 1.0 | 0.00 | 0.62 | 0.62 | 98 | 978.2 |
| 20260507021201 | 53 | 295 | 2.0 | 3.0 | 0.05 | 0.62 | 0.62 | 98 | 978.2 |
| 20260507020700 | 53 | 327 | 0.0 | 2.0 | 0.05 | 0.62 | 0.62 | 98 | 977.7 |
| 20260507020156 | 53 | 130 | 0.0 | 0.0 | 0.00 | 0.61 | 0.61 | 99 | 978.3 |
| 20260507015654 | 53 | 130 | 0.0 | 0.0 | 0.00 | 0.61 | 0.61 | 99 | 978.0 |
| 20260507015151 | 53 | 125 | 0.0 | 1.0 | 0.00 | 0.61 | 0.61 | 99 | 977.8 |
| 20260507014647 | 53 | 129 | 1.0 | 2.0 | 0.00 | 0.61 | 0.61 | 99 | 977.4 |
| 20260507014143 | 53 | 130 | 0.0 | 1.0 | 0.00 | 0.61 | 0.61 | 99 | 978.0 |
| 20260507013641 | 53 | 130 | 0.0 | 0.0 | 0.00 | 0.61 | 0.61 | 99 | 977.4 |
| 20260507013138 | 53 | 130 | 0.0 | 0.0 | 0.00 | 0.61 | 0.61 | 99 | 977.4 |
| 20260507012636 | 53 | 130 | 0.0 | 0.0 | 0.00 | 0.61 | 0.61 | 99 | 977.5 |
| 20260507012130 | 53 | 130 | 0.0 | 0.0 | 0.00 | 0.61 | 0.61 | 99 | 977.4 |
| 20260507011629 | 53 | 130 | 0.0 | 0.0 | 0.00 | 0.61 | 0.61 | 99 | 977.3 |
| 20260507011124 | 53 | 130 | 0.0 | 1.0 | 0.00 | 0.61 | 0.61 | 99 | 977.6 |
| 20260507010620 | 53 | 130 | 0.0 | 1.0 | 0.00 | 0.61 | 0.61 | 99 | 977.4 |
| 20260507010115 | 53 | 130 | 0.0 | 1.0 | 0.00 | 0.61 | 0.61 | 99 | 977.5 |
| 20260507005613 | 53 | 130 | 0.0 | 1.0 | 0.00 | 0.61 | 0.61 | 99 | 977.5 |
| 20260507005109 | 53 | 130 | 0.0 | 0.0 | 0.00 | 0.61 | 0.61 | 99 | 977.2 |
| 20260507004606 | 53 | 130 | 0.0 | 0.0 | 0.00 | 0.61 | 0.61 | 99 | 977.2 |
| 20260507004104 | 53 | 130 | 0.0 | 0.0 | 0.00 | 0.61 | 0.61 | 99 | 976.9 |
| 20260507003559 | 53 | 130 | 0.0 | 0.0 | 0.00 | 0.61 | 0.61 | 99 | 977.2 |
| 20260507003055 | 53 | 130 | 0.0 | 0.0 | 0.00 | 0.61 | 0.61 | 99 | 977.5 |
| 20260507002551 | 53 | 130 | 0.0 | 0.0 | 0.00 | 0.61 | 0.61 | 99 | 977.0 |
| 20260507002047 | 53 | 130 | 0.0 | 0.0 | 0.00 | 0.61 | 0.61 | 99 | 977.1 |
| 20260507001544 | 53 | 130 | 0.0 | 0.0 | 0.00 | 0.61 | 0.61 | 99 | 976.9 |
| 20260507001042 | 53 | 130 | 0.0 | 0.0 | 0.00 | 0.61 | 0.61 | 99 | 977.1 |
| 20260507000538 | 53 | 130 | 0.0 | 0.0 | 0.00 | 0.61 | 0.61 | 99 | 977.0 |
| 20260507000033 | 53 | 130 | 0.0 | 0.0 | 0.00 | 0.61 | 0.61 | 99 | 976.7 |
| 20260506235531 | 53 | 130 | 0.0 | 1.0 | 0.00 | 0.61 | 0.61 | 99 | 976.8 |
| 20260506235026 | 54 | 130 | 0.0 | 0.0 | 0.00 | 0.61 | 0.61 | 99 | 977.3 |
| 20260506234525 | 53 | 130 | 1.0 | 1.0 | 0.00 | 0.61 | 0.61 | 99 | 977.6 |
| 20260506234021 | 54 | 130 | 0.0 | 0.0 | 0.00 | 0.61 | 0.61 | 99 | 977.4 |
| 20260506233518 | 54 | 130 | 0.0 | 0.0 | 0.00 | 0.61 | 0.61 | 99 | 977.4 |
| 20260506233015 | 54 | 130 | 0.0 | 0.0 | 0.00 | 0.61 | 0.61 | 99 | 977.4 |
| 20260506232511 | 54 | 130 | 0.0 | 0.0 | 0.00 | 0.61 | 0.61 | 99 | 977.5 |
| 20260506232006 | 54 | 130 | 0.0 | 0.0 | 0.00 | 0.61 | 0.61 | 99 | 977.5 |
| 20260506231504 | 54 | 130 | 0.0 | 1.0 | 0.00 | 0.61 | 0.61 | 99 | 977.3 |
| 20260506231002 | 54 | 130 | 0.0 | 0.0 | 0.00 | 0.61 | 0.61 | 98 | 977.4 |
| 20260506230458 | 54 | 130 | 0.0 | 1.0 | 0.00 | 0.61 | 0.61 | 98 | 977.5 |
| 20260506225955 | 54 | 130 | 0.0 | 0.0 | 0.00 | 0.61 | 0.61 | 98 | 977.4 |
| 20260506225452 | 54 | 130 | 0.0 | 0.0 | 0.00 | 0.61 | 0.61 | 98 | 977.4 |
| 20260506224948 | 54 | 130 | 0.0 | 1.0 | 0.00 | 0.61 | 0.61 | 98 | 977.1 |
| 20260506224446 | 54 | 130 | 0.0 | 1.0 | 0.00 | 0.61 | 0.61 | 98 | 977.4 |
| 20260506223942 | 54 | 46 | 0.0 | 1.0 | 0.00 | 0.61 | 0.61 | 98 | 977.4 |
| 20260506223438 | 54 | 46 | 1.0 | 1.0 | 0.00 | 0.61 | 0.61 | 98 | 977.3 |
| 20260506222935 | 54 | 46 | 0.0 | 1.0 | 0.00 | 0.61 | 0.61 | 98 | 977.3 |
| 20260506222431 | 54 | 46 | 0.0 | 2.0 | 0.00 | 0.61 | 0.61 | 98 | 977.1 |
| 20260506221929 | 54 | 46 | 1.0 | 1.0 | 0.00 | 0.61 | 0.61 | 98 | 976.9 |
| 20260506221426 | 55 | 46 | 0.0 | 0.0 | 0.00 | 0.61 | 0.61 | 98 | 977.0 |
| 20260506220924 | 54 | 46 | 0.0 | 1.0 | 0.00 | 0.61 | 0.61 | 97 | 976.8 |
| 20260506220419 | 55 | 46 | 1.0 | 1.0 | 0.00 | 0.61 | 0.61 | 98 | 976.8 |
| 20260506215915 | 55 | 46 | 0.0 | 0.0 | 0.00 | 0.61 | 0.61 | 97 | 977.0 |
| 20260506215412 | 55 | 46 | 0.0 | 1.0 | 0.00 | 0.61 | 0.61 | 97 | 976.8 |
| 20260506214908 | 54 | 46 | 0.0 | 2.0 | 0.00 | 0.61 | 0.61 | 96 | 976.8 |
| 20260506214405 | 54 | 45 | 3.0 | 4.0 | 0.00 | 0.61 | 0.61 | 95 | 977.1 |
| 20260506213902 | 55 | 63 | 2.0 | 4.0 | 0.00 | 0.61 | 0.61 | 96 | 977.0 |
| 20260506213400 | 54 | 292 | 0.0 | 3.0 | 0.07 | 0.61 | 0.61 | 96 | 976.9 |
| 20260506212857 | 54 | 70 | 2.0 | 2.0 | 0.07 | 0.61 | 0.61 | 97 | 976.8 |
| 20260506212353 | 55 | 125 | 2.0 | 2.0 | 0.00 | 0.60 | 0.60 | 98 | 976.8 |
| 20260506211847 | 55 | 141 | 1.0 | 1.0 | 0.05 | 0.60 | 0.60 | 98 | 976.7 |
| 20260506211344 | 55 | 100 | 2.0 | 2.0 | 0.05 | 0.60 | 0.60 | 98 | 976.6 |
| 20260506210841 | 55 | 100 | 0.0 | 0.0 | 0.00 | 0.59 | 0.59 | 97 | 976.9 |
| 20260506210338 | 56 | 100 | 0.0 | 1.0 | 0.00 | 0.59 | 0.59 | 98 | 976.5 |
| 20260506205836 | 56 | 100 | 0.0 | 2.0 | 0.07 | 0.59 | 0.59 | 98 | 976.4 |
| 20260506205331 | 56 | 168 | 0.0 | 2.0 | 0.07 | 0.59 | 0.59 | 97 | 976.4 |
| 20260506204828 | 56 | 201 | 0.0 | 1.0 | 0.00 | 0.58 | 0.58 | 97 | 976.6 |
| 20260506204326 | 56 | 201 | 0.0 | 1.0 | 0.00 | 0.58 | 0.58 | 97 | 976.5 |
| 20260506203823 | 55 | 204 | 0.0 | 2.0 | 0.00 | 0.58 | 0.58 | 97 | 976.1 |
| 20260506203320 | 56 | 192 | 2.0 | 3.0 | 0.00 | 0.58 | 0.58 | 97 | 975.9 |
| 20260506202817 | 56 | 192 | 0.0 | 0.0 | 0.05 | 0.58 | 0.58 | 97 | 976.2 |
| 20260506202314 | 56 | 192 | 0.0 | 2.0 | 0.05 | 0.58 | 0.58 | 96 | 976.1 |
| 20260506201810 | 56 | 189 | 1.0 | 3.0 | 0.00 | 0.57 | 0.57 | 96 | 975.9 |
| 20260506201308 | 56 | 156 | 2.0 | 4.0 | 0.00 | 0.57 | 0.57 | 96 | 976.2 |
| 20260506200805 | 56 | 101 | 1.0 | 1.0 | 0.00 | 0.57 | 0.57 | 96 | 976.0 |
| 20260506200301 | 56 | 95 | 1.0 | 3.0 | 0.00 | 0.57 | 0.57 | 95 | 975.9 |
| 20260506195757 | 56 | 110 | 2.0 | 4.0 | 0.00 | 0.57 | 0.57 | 95 | 975.8 |
| 20260506195254 | 56 | 103 | 2.0 | 3.0 | 0.00 | 0.57 | 0.57 | 96 | 975.9 |
| 20260506194751 | 57 | 66 | 2.0 | 2.0 | 0.00 | 0.57 | 0.57 | 96 | 975.6 |
| 20260506194247 | 56 | 130 | 2.0 | 4.0 | 0.00 | 0.57 | 0.57 | 96 | 975.8 |
| 20260506193745 | 56 | 157 | 0.0 | 2.0 | 0.00 | 0.57 | 0.57 | 97 | 975.8 |
| 20260506193242 | 56 | 159 | 1.0 | 6.0 | 0.00 | 0.57 | 0.57 | 96 | 975.6 |
| 20260506192738 | 56 | 95 | 2.0 | 3.0 | 0.00 | 0.57 | 0.57 | 96 | 975.8 |
| 20260506192235 | 57 | 46 | 1.0 | 2.0 | 0.00 | 0.57 | 0.57 | 96 | 975.7 |
| 20260506191732 | 57 | 137 | 4.0 | 4.0 | 0.00 | 0.57 | 0.57 | 95 | 975.7 |
| 20260506191228 | 58 | 65 | 1.0 | 3.0 | 0.00 | 0.57 | 0.57 | 95 | 975.8 |
| 20260506190725 | 58 | 84 | 1.0 | 2.0 | 0.00 | 0.57 | 0.57 | 96 | 975.5 |
| 20260506190222 | 58 | 45 | 3.0 | 6.0 | 0.00 | 0.57 | 0.57 | 95 | 975.4 |
| 20260506185719 | 58 | 59 | 1.0 | 2.0 | 0.00 | 0.57 | 0.57 | 95 | 975.4 |
| 20260506185215 | 58 | 84 | 1.0 | 3.0 | 0.00 | 0.57 | 0.57 | 95 | 975.2 |
| 20260506184713 | 58 | 97 | 1.0 | 6.0 | 0.00 | 0.57 | 0.57 | 95 | 975.2 |
| 20260506184210 | 58 | 327 | 1.0 | 4.0 | 0.00 | 0.57 | 0.57 | 96 | 975.3 |
| 20260506183707 | 58 | 283 | 2.0 | 10.0 | 0.00 | 0.57 | 0.57 | 95 | 975.4 |
| 20260506183202 | 59 | 64 | 0.0 | 2.0 | 0.00 | 0.57 | 0.57 | 96 | 975.0 |
| 20260506182700 | 59 | 351 | 4.0 | 4.0 | 0.00 | 0.57 | 0.57 | 96 | 974.9 |
| 20260506182157 | 59 | 335 | 2.0 | 4.0 | 0.00 | 0.57 | 0.57 | 96 | 974.9 |
| 20260506181655 | 60 | 147 | 1.0 | 2.0 | 0.00 | 0.57 | 0.57 | 97 | 974.9 |
| 20260506181152 | 60 | 334 | 3.0 | 4.0 | 0.00 | 0.57 | 0.57 | 97 | 975.0 |
| 20260506180649 | 60 | 327 | 0.0 | 2.0 | 0.00 | 0.57 | 0.57 | 97 | 974.8 |
| 20260506180145 | 61 | 45 | 0.0 | 1.0 | 0.00 | 0.57 | 0.57 | 97 | 975.1 |
| 20260506175642 | 61 | 115 | 1.0 | 2.0 | 0.00 | 0.57 | 0.57 | 98 | 975.0 |
| 20260506175138 | 60 | 103 | 3.0 | 8.0 | 0.00 | 0.57 | 0.57 | 97 | 974.9 |
| 20260506174631 | 61 | 124 | 1.0 | 3.0 | 0.07 | 0.57 | 0.57 | 98 | 975.2 |
| 20260506174127 | 61 | 99 | 1.0 | 3.0 | 0.14 | 0.57 | 0.57 | 98 | 974.9 |
| 20260506173625 | 60 | 209 | 2.0 | 3.0 | 0.07 | 0.56 | 0.56 | 98 | 974.9 |
| 20260506173121 | 61 | 135 | 1.0 | 1.0 | 0.05 | 0.55 | 0.55 | 98 | 975.2 |
| 20260506172619 | 61 | 207 | 0.0 | 3.0 | 0.05 | 0.55 | 0.55 | 98 | 975.0 |
| 20260506172115 | 61 | 117 | 0.0 | 3.0 | 0.00 | 0.54 | 0.54 | 98 | 974.8 |
| 20260506171613 | 61 | 176 | 0.0 | 1.0 | 0.00 | 0.54 | 0.54 | 98 | 974.8 |
| 20260506171110 | 61 | 90 | 0.0 | 2.0 | 0.00 | 0.54 | 0.54 | 98 | 975.0 |
| 20260506170607 | 61 | 109 | 2.0 | 2.0 | 0.00 | 0.54 | 0.54 | 98 | 974.9 |
| 20260506170105 | 61 | 92 | 3.0 | 3.0 | 0.00 | 0.54 | 0.54 | 98 | 974.8 |
| 20260506165603 | 61 | 125 | 3.0 | 3.0 | 0.00 | 0.54 | 0.54 | 98 | 974.9 |
| 20260506165059 | 61 | 108 | 2.0 | 3.0 | 0.00 | 0.54 | 0.54 | 99 | 975.1 |
| 20260506164556 | 61 | 104 | 1.0 | 2.0 | 0.00 | 0.54 | 0.54 | 99 | 975.1 |
| 20260506164053 | 61 | 185 | 1.0 | 4.0 | 0.00 | 0.54 | 0.54 | 98 | 974.9 |
| 20260506163549 | 61 | 70 | 1.0 | 4.0 | 0.00 | 0.54 | 0.54 | 98 | 975.1 |
| 20260506163045 | 61 | 328 | 1.0 | 7.0 | 0.00 | 0.54 | 0.54 | 98 | 975.0 |
| 20260506162541 | 61 | 122 | 1.0 | 2.0 | 0.00 | 0.54 | 0.54 | 98 | 974.8 |
| 20260506162039 | 61 | 98 | 2.0 | 3.0 | 0.00 | 0.54 | 0.54 | 98 | 974.9 |
| 20260506161536 | 61 | 226 | 1.0 | 1.0 | 0.00 | 0.54 | 0.54 | 98 | 974.9 |
| 20260506161033 | 61 | 100 | 0.0 | 1.0 | 0.00 | 0.54 | 0.54 | 98 | 974.7 |
| 20260506160531 | 61 | 99 | 1.0 | 3.0 | 0.00 | 0.54 | 0.54 | 98 | 974.7 |
| 20260506160028 | 61 | 95 | 0.0 | 2.0 | 0.00 | 0.54 | 0.54 | 99 | 974.8 |
| 20260506155526 | 61 | 96 | 1.0 | 3.0 | 0.00 | 0.54 | 0.54 | 98 | 974.8 |
| 20260506153657 | 61 | 161 | 0.0 | 4.0 | 0.00 | 0.54 | 0.54 | 99 | 974.6 |
| 20260506153155 | 61 | 84 | 1.0 | 3.0 | 0.00 | 0.54 | 0.54 | 99 | 974.2 |
| 20260506152651 | 61 | 103 | 0.0 | 6.0 | 0.00 | 0.54 | 0.54 | 99 | 974.4 |
| 20260506152149 | 61 | 87 | 1.0 | 6.0 | 0.00 | 0.54 | 0.54 | 99 | 974.1 |
| 20260506151648 | 60 | 90 | 3.0 | 7.0 | 0.00 | 0.54 | 0.54 | 99 | 974.1 |
| 20260506151144 | 60 | 123 | 4.0 | 6.0 | 0.00 | 0.54 | 0.54 | 99 | 974.2 |
| 20260506150641 | 60 | 99 | 2.0 | 6.0 | 0.07 | 0.54 | 0.54 | 99 | 974.1 |
| 20260506150138 | 60 | 192 | 0.0 | 6.0 | 0.07 | 0.54 | 0.54 | 99 | 974.2 |
| 20260506145635 | 60 | 130 | 3.0 | 4.0 | 0.00 | 0.53 | 0.53 | 99 | 974.2 |
| 20260506145131 | 60 | 243 | 0.0 | 3.0 | 0.00 | 0.53 | 0.53 | 99 | 974.1 |
| 20260506144629 | 60 | 100 | 0.0 | 2.0 | 0.00 | 0.53 | 0.53 | 99 | 974.1 |
| 20260506144125 | 60 | 100 | 0.0 | 1.0 | 0.00 | 0.53 | 0.53 | 99 | 974.1 |
| 20260506143623 | 60 | 100 | 1.0 | 2.0 | 0.00 | 0.53 | 0.53 | 99 | 974.0 |
| 20260506143121 | 60 | 103 | 1.0 | 2.0 | 0.00 | 0.53 | 0.53 | 99 | 973.6 |
| 20260506142619 | 59 | 103 | 0.0 | 0.0 | 0.00 | 0.53 | 0.53 | 99 | 973.8 |
| 20260506142117 | 60 | 103 | 0.0 | 0.0 | 0.00 | 0.53 | 0.53 | 99 | 973.7 |
| 20260506141614 | 59 | 103 | 0.0 | 0.0 | 0.00 | 0.53 | 0.53 | 99 | 973.7 |
| 20260506141113 | 59 | 103 | 1.0 | 2.0 | 0.00 | 0.53 | 0.53 | 99 | 973.5 |
| 20260506140610 | 59 | 107 | 0.0 | 0.0 | 0.00 | 0.53 | 0.53 | 99 | 973.5 |
| 20260506140107 | 59 | 107 | 1.0 | 1.0 | 0.00 | 0.53 | 0.53 | 99 | 973.1 |
| 20260506135603 | 59 | 107 | 0.0 | 0.0 | 0.05 | 0.53 | 0.53 | 99 | 973.3 |
| 20260506135100 | 59 | 107 | 0.0 | 0.0 | 0.05 | 0.53 | 0.53 | 99 | 973.3 |
| 20260506134556 | 59 | 107 | 0.0 | 0.0 | 0.00 | 0.52 | 0.52 | 99 | 973.3 |
| 20260506134052 | 59 | 107 | 0.0 | 1.0 | 0.00 | 0.52 | 0.52 | 99 | 973.4 |
| 20260506133549 | 59 | 107 | 0.0 | 1.0 | 0.00 | 0.52 | 0.52 | 99 | 973.6 |
| 20260506133047 | 59 | 107 | 1.0 | 3.0 | 0.00 | 0.52 | 0.52 | 99 | 973.3 |
| 20260506132544 | 58 | 109 | 0.0 | 1.0 | 0.00 | 0.52 | 0.52 | 99 | 973.6 |
| 20260506132041 | 58 | 109 | 0.0 | 0.0 | 0.00 | 0.52 | 0.52 | 99 | 973.4 |
| 20260506131538 | 58 | 109 | 1.0 | 1.0 | 0.00 | 0.52 | 0.52 | 99 | 973.6 |
| 20260506131034 | 58 | 165 | 0.0 | 0.0 | 0.00 | 0.52 | 0.52 | 99 | 973.4 |
| 20260506130532 | 58 | 165 | 0.0 | 0.0 | 0.00 | 0.52 | 0.52 | 99 | 973.5 |
| 20260506130029 | 58 | 165 | 0.0 | 0.0 | 0.00 | 0.52 | 0.52 | 99 | 973.5 |
| 20260506125527 | 58 | 165 | 0.0 | 0.0 | 0.00 | 0.52 | 0.52 | 99 | 973.1 |
| 20260506125025 | 58 | 165 | 0.0 | 0.0 | 0.00 | 0.52 | 0.52 | 99 | 973.1 |
| 20260506124523 | 58 | 165 | 0.0 | 0.0 | 0.00 | 0.52 | 0.52 | 99 | 973.4 |
| 20260506124020 | 58 | 165 | 0.0 | 0.0 | 0.00 | 0.52 | 0.52 | 99 | 973.1 |
| 20260506123518 | 58 | 165 | 0.0 | 0.0 | 0.00 | 0.52 | 0.52 | 99 | 973.3 |
| 20260506123015 | 58 | 165 | 2.0 | 2.0 | 0.00 | 0.52 | 0.52 | 99 | 973.1 |
| 20260506122512 | 58 | 98 | 0.0 | 1.0 | 0.00 | 0.52 | 0.52 | 99 | 973.1 |
| 20260506122010 | 58 | 98 | 0.0 | 0.0 | 0.00 | 0.52 | 0.52 | 99 | 973.4 |
| 20260506121507 | 58 | 112 | 2.0 | 2.0 | 0.00 | 0.52 | 0.52 | 99 | 973.1 |
| 20260506121003 | 57 | 118 | 1.0 | 3.0 | 0.00 | 0.52 | 0.52 | 99 | 973.3 |
| 20260506120501 | 57 | 89 | 0.0 | 1.0 | 0.00 | 0.52 | 0.52 | 99 | 973.3 |
| 20260506115958 | 57 | 89 | 0.0 | 0.0 | 0.00 | 0.52 | 0.52 | 99 | 973.0 |
| 20260506115456 | 57 | 89 | 1.0 | 2.0 | 0.07 | 0.52 | 0.52 | 99 | 972.8 |
| 20260506114954 | 57 | 98 | 1.0 | 1.0 | 0.07 | 0.52 | 0.52 | 99 | 972.8 |
| 20260506114451 | 57 | 102 | 1.0 | 1.0 | 0.00 | 0.51 | 0.51 | 99 | 972.8 |
| 20260506113950 | 57 | 138 | 1.0 | 2.0 | 0.00 | 0.51 | 0.51 | 99 | 972.8 |
| 20260506113447 | 57 | 205 | 0.0 | 0.0 | 0.00 | 0.51 | 0.51 | 99 | 972.8 |
| 20260506112943 | 57 | 205 | 0.0 | 2.0 | 0.05 | 0.51 | 0.51 | 99 | 972.7 |
| 20260506112441 | 57 | 253 | 0.0 | 1.0 | 0.12 | 0.51 | 0.51 | 99 | 972.6 |
| 20260506111938 | 56 | 253 | 0.0 | 1.0 | 0.12 | 0.50 | 0.50 | 99 | 972.6 |
| 20260506111437 | 56 | 253 | 0.0 | 0.0 | 0.28 | 0.49 | 0.49 | 99 | 972.3 |
| 20260506110933 | 56 | 253 | 0.0 | 1.0 | 0.50 | 0.48 | 0.48 | 99 | 972.4 |
| 20260506110431 | 56 | 107 | 1.0 | 2.0 | 0.35 | 0.43 | 0.43 | 99 | 972.3 |
| 20260506105927 | 56 | 129 | 0.0 | 3.0 | 0.28 | 0.40 | 0.40 | 99 | 972.4 |
| 20260506105424 | 56 | 167 | 3.0 | 3.0 | 0.24 | 0.37 | 0.37 | 99 | 972.4 |
| 20260506104921 | 56 | 58 | 0.0 | 0.0 | 0.12 | 0.35 | 0.35 | 99 | 972.3 |
| 20260506104419 | 56 | 58 | 0.0 | 0.0 | 0.00 | 0.33 | 0.33 | 99 | 972.6 |
| 20260506103917 | 56 | 58 | 0.0 | 0.0 | 0.00 | 0.33 | 0.33 | 99 | 972.3 |
| 20260506103414 | 56 | 58 | 0.0 | 0.0 | 0.07 | 0.33 | 0.33 | 99 | 972.1 |
| 20260506102911 | 56 | 58 | 0.0 | 0.0 | 0.12 | 0.33 | 0.33 | 99 | 972.1 |
| 20260506102409 | 56 | 58 | 0.0 | 0.0 | 0.12 | 0.32 | 0.32 | 99 | 972.3 |
| 20260506101906 | 56 | 58 | 0.0 | 1.0 | 0.14 | 0.31 | 0.31 | 99 | 972.5 |
| 20260506101402 | 56 | 58 | 1.0 | 1.0 | 0.19 | 0.30 | 0.30 | 99 | 972.5 |
| 20260506100859 | 56 | 59 | 2.0 | 3.0 | 0.17 | 0.29 | 0.29 | 99 | 972.6 |
| 20260506100358 | 56 | 171 | 0.0 | 0.0 | 0.17 | 0.27 | 0.27 | 99 | 973.0 |
| 20260506095856 | 56 | 171 | 0.0 | 0.0 | 0.24 | 0.26 | 0.26 | 99 | 972.8 |
| 20260506095354 | 56 | 171 | 0.0 | 0.0 | 0.19 | 0.24 | 0.24 | 99 | 973.0 |
| 20260506094850 | 56 | 171 | 0.0 | 0.0 | 0.12 | 0.22 | 0.22 | 99 | 972.9 |
| 20260506094349 | 56 | 171 | 0.0 | 0.0 | 0.12 | 0.21 | 0.21 | 99 | 973.0 |
| 20260506093847 | 56 | 171 | 0.0 | 0.0 | 0.19 | 0.20 | 0.20 | 99 | 973.3 |
| 20260506093344 | 56 | 171 | 0.0 | 0.0 | 0.19 | 0.19 | 0.19 | 99 | 973.1 |
| 20260506092842 | 56 | 171 | 0.0 | 0.0 | 0.12 | 0.17 | 0.17 | 99 | 973.4 |